Location: Newark
(33.4453°N, 112.0669°W)
Time: 12:37:21
(UTC+00:00)

Transit 2A Rocket - Visible Passes

Search period start: 17 February 2020 00:00
Search period end: 27 February 2020 00:00
Orbit: 592 x 911 km, 66.7° (Epoch: 16 February)

Date Brightness Start Highest point End Pass type
(mag) Time Alt. Az. Time Alt. Az. Time Alt. Az.
22 Feb 8.0 13:22:09 10° NE 13:23:01 10° NE 13:23:55 10° ENE visible
24 Feb 7.3 13:36:35 10° N 13:40:59 26° ENE 13:45:41 10° ESE visible
25 Feb 7.7 12:55:06 10° NNE 12:58:11 15° NE 13:01:23 10° E visible
